[[{"header":{"parameterUnit":"m.s-1","parameterCategory":1,"la1":30.2991,"la2":30.254,"lo1":-89.0895,"lo2":-89.0444,"dy":0.0017,"dx":0.0017,"nx":28,"ny":28,"refTime":"2023-07-20T09:00:00:Z","depth":0,"parameterNumber":2,"parameterNumberName":"U-component_of_WINDS"},"data":[0,0,0,0,0,0,0,0,0,0,0,0,0,0,0,0,0,0,0,0,0,0,0,0,0,0,0,0,0,0,0,0,0,0,0,0,0,0,0,0,0,0,0,0,0,0,0,0,0,0,0,0,0,0,0,0,0,0,3.5174,3.5175,0,3.5272,3.5273,3.5274,3.5227,3.5224,3.5222,3.5219,3.5319,3.5324,3.5329,0,0,0,0,0,0,0,0,0,0,0,0,0,3.4943,3.4947,3.5173,3.5175,3.5176,3.5271,3.5273,3.5274,3.5227,3.5224,3.5221,3.5218,3.5317,3.5323,3.5329,0,0,0,0,0,0,0,0,0,0,0,0,0,3.5042,3.4949,3.5173,3.5164,3.5164,3.5271,3.5273,3.5274,3.5228,3.5224,3.522,3.5217,3.5315,3.5323,3.533,3.5452,0,0,3.5353,3.5356,0,0,0,0,0,0,0,0,3.5036,3.5051,3.5164,3.5165,3.5165,3.5233,3.5228,3.5334,3.5229,3.5204,3.5219,3.5215,3.5293,3.5302,3.5329,3.5456,3.546,3.5353,3.5358,3.5361,3.5363,0,0,0,0,0,0,0,3.503,3.5046,3.5212,3.5166,3.5166,3.5154,3.5164,3.5248,3.5268,3.5205,3.5202,3.5214,3.5293,3.5322,3.5331,3.5462,3.5353,3.536,3.5365,3.5367,3.569,3.5694,0,0,0,0,0,0,3.5023,3.5041,3.5209,3.5215,3.509,3.5161,3.5172,3.5215,3.5267,3.5272,3.5218,3.5212,3.5311,3.5322,3.5334,3.5477,3.5361,3.5368,3.5372,3.5686,3.5691,3.5695,0,0,0,0,0,0,3.5019,3.5039,3.5205,3.5127,3.5147,3.5169,3.5217,3.5219,3.5248,3.5276,3.528,3.5244,3.5308,3.5324,3.5422,3.548,3.5372,3.5378,3.5681,3.5688,3.5693,3.5767,0,0,0,0,0,0,3.5012,3.5037,3.5085,3.5129,3.5152,3.5292,3.5221,3.5224,3.5261,3.5255,3.5302,3.5306,3.5307,3.5411,3.5429,3.5489,3.5384,3.5676,3.5684,3.5691,3.5759,3.5774,3.5788,0,0,0,0,0,3.5004,3.5102,3.5087,3.5108,3.5211,3.5296,3.5309,3.5308,3.5266,3.5313,3.5331,3.5304,3.5471,3.5422,3.5442,3.5504,3.5672,3.5682,3.5691,3.5753,3.5771,3.5787,0,0,0,0,0,0,3.5065,3.5108,3.5092,3.5207,3.5248,3.5288,3.5347,3.5328,3.5382,3.5374,3.537,3.5381,3.5482,3.5503,3.5447,3.5623,3.5565,3.5579,3.5605,3.5623,3.5637,3.5629,3.539,0,0,0,0,0,3.5092,3.5157,3.5191,3.5289,3.5311,3.5325,3.5362,3.5358,3.54,3.5417,3.5442,3.5484,3.5545,3.5586,3.5644,3.5762,3.577,3.5815,3.5829,3.5841,3.5852,3.5913,3.5932,3.5726,3.5725,3.5725,0,0,3.5148,3.5179,3.5221,3.5302,3.5333,3.54,3.534,3.5414,3.5463,3.5428,3.5522,3.5542,3.5587,3.5695,3.5744,3.5716,3.5911,3.5852,3.5861,3.5867,3.5924,3.5944,3.5961,3.5732,3.5731,3.573,0,0,3.5283,3.5315,3.5399,3.5431,3.5479,3.5487,3.5508,3.555,3.5561,3.5655,3.5629,3.5687,3.5794,3.5827,3.5857,3.6003,3.598,3.6022,3.6096,3.6156,3.6172,3.6186,3.6235,3.6253,3.6034,3.6034,3.6034,0,3.5347,3.5447,3.5444,3.552,3.5555,3.5526,3.5609,3.5641,3.5705,3.573,3.5697,3.5828,3.5858,3.5971,3.6006,3.6033,3.6054,3.6016,3.617,3.6184,3.6198,3.6244,3.6263,3.6038,3.6038,3.6037,3.6037,0,3.5521,3.5591,3.5653,3.5715,3.5757,3.5837,3.5844,3.5888,3.5879,3.5891,3.5985,3.6019,3.6082,3.6109,3.6102,3.6221,3.6201,3.617,3.6111,3.6222,3.6266,3.6284,3.6045,3.6043,3.6042,3.6041,0,0,3.5699,3.5757,3.5779,3.5805,3.5855,3.5908,3.5985,3.6047,3.6082,3.6128,3.619,3.628,3.625,3.6285,3.6281,3.6334,3.6443,3.6295,3.6296,3.6319,3.6573,3.6595,3.6616,3.6428,3.6432,3.6435,3.6568,0,3.5836,3.5971,3.5969,3.6093,3.6156,3.6128,3.6195,3.6231,3.6244,3.6298,3.6312,3.6374,3.6332,3.6352,3.6403,3.6419,3.6493,3.641,3.6485,3.6488,3.6472,3.6639,3.6663,3.6787,3.6585,3.6588,3.6591,0,3.6014,3.6064,3.6194,3.6232,3.6258,3.6318,3.6372,3.6425,3.6466,3.6471,3.6509,3.6496,3.6572,3.6512,3.6616,3.6558,3.6589,3.6601,3.6606,3.6612,3.6544,3.6647,3.6827,3.6845,3.6618,3.6616,3.6614,0,3.6127,3.6227,3.6317,3.6341,3.6388,3.643,3.6451,3.6488,3.6524,3.6571,3.6594,3.6651,3.6681,3.6724,3.6726,3.6683,3.6829,3.677,3.6834,3.6834,3.6865,3.6862,3.705,3.6888,3.6888,3.6888,3.6887,0,3.6279,3.6359,3.6367,3.6423,3.6511,3.6508,3.6595,3.6612,3.6644,3.6701,3.6681,3.6735,3.6735,3.6789,3.6791,3.6874,3.6889,3.6894,3.6893,3.6895,3.6894,3.6913,3.6904,3.6893,3.6892,3.6891,3.689,0,3.642,3.6429,3.6525,3.6561,3.6571,3.6634,3.6664,3.6716,3.6726,3.6798,3.6815,3.683,3.6893,3.6899,3.6972,3.6973,3.7073,3.7064,3.706,3.7057,3.7119,3.7112,3.7325,3.7351,3.7174,3.7176,3.7177,0,3.6516,3.6576,3.6618,3.6655,3.6678,3.6738,3.6774,3.6773,3.6811,3.686,3.6905,3.6965,3.7013,3.7114,3.7131,3.7186,3.7176,3.7247,3.7185,3.7183,3.7174,3.717,3.7174,3.7259,3.7261,3.7262,3.7263,0,3.6683,3.6684,3.6737,3.6792,3.6835,3.6878,3.6918,3.6949,3.6952,3.6996,3.7059,3.7096,3.717,3.7229,3.7282,3.7303,3.7283,3.7283,3.73,3.7301,3.7295,3.7296,3.709,3.7278,3.7276,3.7275,3.7275,3.7274,3.6803,3.6854,3.6891,3.695,3.6979,3.7017,3.7066,3.7081,3.7134,3.7194,3.719,3.7259,3.7295,3.7364,3.7389,3.7442,3.7418,3.7443,3.7449,3.7455,3.746,3.7288,3.7452,3.7451,3.7451,3.7451,3.745,0,3.6967,3.6989,3.7043,3.7099,3.7145,3.7123,3.7165,3.7204,3.7265,3.7301,3.7348,3.7419,3.7476,3.7497,3.7551,3.759,3.7582,3.7604,3.76,3.7604,3.748,3.7458,3.7609,3.7609,3.7609,3.7609,3.7609,3.7609,3.7058,3.7142,3.7147,3.7246,3.7267,3.7334,3.7359,3.7393,3.7421,3.7501,3.7548,3.7561,3.759,3.7646,3.7696,3.7701,3.7721,3.7746,3.7747,3.7629,3.7613,3.7598,3.7578,3.7751,3.7751,3.7866,3.7867,3.7868]},{"header":{"parameterUnit":"m.s-1","parameterCategory":1,"la1":30.2991,"la2":30.254,"lo1":-89.0895,"lo2":-89.0444,"dy":0.0017,"dx":0.0017,"nx":28,"ny":28,"refTime":"2023-07-20T09:00:00:Z","depth":0,"parameterNumber":3,"parameterNumberName":"V-component_of_WINDS"},"data":[0,0,0,0,0,0,0,0,0,0,0,0,0,0,0,0,0,0,0,0,0,0,0,0,0,0,0,0,0,0,0,0,0,0,0,0,0,0,0,0,0,0,0,0,0,0,0,0,0,0,0,0,0,0,0,0,0,0,0.8694,0.8695,0,0.8787,0.8788,0.8789,0.8803,0.8802,0.8801,0.88,0.8898,0.8901,0.8904,0,0,0,0,0,0,0,0,0,0,0,0,0,0.8531,0.8533,0.8694,0.8695,0.8696,0.8786,0.8788,0.8789,0.8803,0.8802,0.8801,0.88,0.8896,0.89,0.8904,0,0,0,0,0,0,0,0,0,0,0,0,0,0.861,0.8534,0.8694,0.8714,0.8717,0.8786,0.8788,0.8789,0.8803,0.8802,0.8801,0.8799,0.8895,0.89,0.8905,0.8961,0,0,0.892,0.8923,0,0,0,0,0,0,0,0,0.8606,0.8616,0.871,0.8713,0.8716,0.8782,0.8766,0.8847,0.8803,0.877,0.88,0.8799,0.886,0.8868,0.8888,0.8966,0.897,0.8921,0.8924,0.8926,0.8928,0,0,0,0,0,0,0,0.86,0.8612,0.8731,0.8711,0.8715,0.8719,0.8729,0.8781,0.8821,0.8773,0.8774,0.8785,0.8862,0.8883,0.8891,0.8972,0.8921,0.8925,0.8928,0.893,0.9099,0.9101,0,0,0,0,0,0,0.8591,0.8608,0.8728,0.8733,0.8656,0.8723,0.8734,0.8762,0.8821,0.8828,0.8786,0.8785,0.8875,0.8885,0.8894,0.8964,0.8926,0.8931,0.8934,0.9098,0.91,0.9101,0,0,0,0,0,0,0.8587,0.8601,0.8724,0.8671,0.8687,0.8727,0.8758,0.8764,0.8786,0.883,0.8838,0.8801,0.8875,0.8887,0.8944,0.8967,0.8933,0.8938,0.9096,0.9099,0.9101,0.9104,0,0,0,0,0,0,0.8582,0.86,0.8622,0.8671,0.869,0.8772,0.876,0.8767,0.8795,0.8795,0.8846,0.8854,0.8875,0.8937,0.8949,0.8974,0.8942,0.9094,0.9097,0.91,0.9102,0.9106,0.9109,0,0,0,0,0,0.8576,0.8619,0.8623,0.8637,0.8717,0.8774,0.8784,0.8807,0.8796,0.8819,0.8847,0.8852,0.8962,0.8942,0.8957,0.8983,0.9093,0.9096,0.91,0.91,0.9105,0.9109,0,0,0,0,0,0,0.8573,0.8626,0.8631,0.8691,0.8727,0.8776,0.8805,0.8811,0.8852,0.8851,0.8878,0.8889,0.8945,0.897,0.8946,0.904,0.9027,0.9033,0.9022,0.9027,0.9031,0.9024,0.8946,0,0,0,0,0,0.8579,0.8619,0.8664,0.8713,0.8731,0.8764,0.879,0.8804,0.8843,0.8859,0.8892,0.893,0.8973,0.9002,0.9044,0.9105,0.9116,0.913,0.9133,0.9136,0.9142,0.9175,0.9182,0.9112,0.9112,0.9112,0,0,0.8592,0.8626,0.865,0.8713,0.8743,0.8785,0.8778,0.8822,0.8854,0.8866,0.8922,0.8947,0.8992,0.9051,0.9078,0.9073,0.9163,0.914,0.9142,0.9146,0.9179,0.9186,0.9192,0.9114,0.9114,0.9114,0,0,0.8637,0.8667,0.8711,0.8741,0.8786,0.8807,0.8818,0.8865,0.8882,0.8938,0.8948,0.8985,0.906,0.9091,0.9117,0.9172,0.9178,0.9185,0.9205,0.9237,0.9242,0.9247,0.9267,0.9274,0.919,0.919,0.919,0,0.8649,0.8711,0.8733,0.8777,0.8804,0.8816,0.886,0.8888,0.8945,0.8964,0.8956,0.9049,0.908,0.9146,0.9159,0.918,0.9193,0.918,0.924,0.9245,0.925,0.9269,0.9276,0.9191,0.919,0.919,0.919,0,0.8722,0.8766,0.8795,0.8849,0.8879,0.8923,0.8952,0.898,0.8991,0.9013,0.907,0.9107,0.9157,0.9173,0.9185,0.9241,0.9236,0.9234,0.9221,0.9257,0.9275,0.9283,0.9191,0.9191,0.9191,0.9191,0,0,0.877,0.8833,0.8844,0.8867,0.8917,0.8951,0.8995,0.9043,0.9067,0.9105,0.9143,0.9205,0.9202,0.9231,0.9246,0.9274,0.9316,0.9269,0.927,0.9276,0.9379,0.9381,0.9389,0.9319,0.9321,0.9322,0.9376,0,0.8821,0.89,0.892,0.8987,0.9027,0.9038,0.9076,0.9111,0.9133,0.917,0.9194,0.9238,0.9231,0.9249,0.9277,0.9304,0.9337,0.9301,0.9356,0.9357,0.9344,0.9399,0.9401,0.945,0.9383,0.9384,0.9385,0,0.8892,0.893,0.9001,0.9044,0.9062,0.9096,0.9141,0.9176,0.9216,0.923,0.9261,0.9273,0.932,0.9303,0.9368,0.9343,0.9366,0.9383,0.9386,0.9392,0.9374,0.9407,0.9466,0.9473,0.9397,0.9396,0.9395,0,0.8919,0.8989,0.904,0.906,0.9112,0.9136,0.9158,0.9197,0.9223,0.9263,0.928,0.9324,0.9349,0.9383,0.9407,0.9393,0.9469,0.9455,0.9482,0.9482,0.9499,0.9498,0.9563,0.9513,0.9513,0.9513,0.9512,0,0.8975,0.9018,0.9053,0.9084,0.9132,0.9155,0.9202,0.9225,0.9259,0.9295,0.9307,0.9341,0.937,0.9408,0.9427,0.9477,0.9488,0.9501,0.9506,0.95,0.9499,0.9516,0.9514,0.9515,0.9514,0.9514,0.9513,0,0.9014,0.9039,0.9096,0.9139,0.9151,0.9185,0.9223,0.9254,0.9275,0.9321,0.9333,0.9367,0.9412,0.9439,0.9496,0.9508,0.9564,0.9567,0.9551,0.9553,0.9579,0.9576,0.9658,0.967,0.9612,0.9612,0.9613,0,0.9049,0.9082,0.9128,0.9153,0.9176,0.9216,0.9243,0.9265,0.9293,0.934,0.9365,0.9411,0.9448,0.952,0.955,0.9594,0.9598,0.9624,0.9605,0.9598,0.9599,0.9597,0.96,0.9627,0.9628,0.9628,0.9629,0,0.9107,0.9117,0.9155,0.9197,0.9229,0.9263,0.9298,0.9317,0.9346,0.9377,0.9422,0.9451,0.9509,0.9554,0.96,0.9624,0.9631,0.9634,0.9643,0.9638,0.9627,0.9633,0.956,0.9632,0.9632,0.9632,0.9631,0.9631,0.9145,0.9174,0.9211,0.9253,0.9281,0.9312,0.9343,0.9368,0.9406,0.9454,0.9465,0.9513,0.9551,0.9613,0.9638,0.9676,0.9672,0.9684,0.9687,0.969,0.9691,0.962,0.9684,0.9684,0.9684,0.9684,0.9684,0,0.9203,0.9227,0.9265,0.9312,0.9345,0.9347,0.9385,0.9413,0.9454,0.9488,0.9525,0.9577,0.962,0.9653,0.9697,0.9721,0.9726,0.9732,0.9731,0.9737,0.9692,0.968,0.9728,0.9728,0.9728,0.9728,0.9728,0.9728,0.9238,0.9287,0.9302,0.9365,0.9389,0.9435,0.9457,0.9486,0.9513,0.957,0.9606,0.9626,0.966,0.9707,0.9747,0.9755,0.9771,0.9777,0.9786,0.9745,0.974,0.9735,0.9724,0.978,0.978,0.9828,0.9828,0.9828]}]]